SCP
0 0 0 0 0 0 0 0 0 0 0 0 0 0 0 0 0 0 0 0 0 0 0 0 0 0 0 0 0 0 0 0 0 0 0 0 0 0 0 0 0 0 0 0 0 0 0
0 0 0 0 0 0 0 0 0 0 0 0 0 0 0 0 0 0 0 0 0 0 0 0 0 0 0 0 0 0 0 0 0 0 0 0 0 0 0 0 0 0 0 0 0 0 0
0 0 0 0 0 0 0 0 0 -0 -0 -0 0 0 0 0 0 0 0 0 0 0 0 0 0 0 0 0 0 0 0 0 0 0 0 0 0 0 0 0 0 0 0 0 0 0 0
0 0 0 0 0 0 0 0 0 0 0 0 0 0 0 0 0 0 0 0 0 0 0 0 0 0 0 0 0 0 0 0 0 0 0 0 0 0 0 0 0 0 0 0 0 0 0
0 0 0 0 0 0 0 0 0 -0 0 0 0 0 0 0 0 0 0 0 0 0 0 0 0 0 0 0 0 0 0 0 0 0 0 0 0 0 0 0 0 0 0 0 0 0 0
0 0 0 0 0 0 0 0 0 -0 -0 0 0 0 0 0 0 0 0 0 0 0 0 0 0 0 0 0 0 0 0 0 0 0 0 0 0 0 0 0 0 0 0 0 0 0 0
0 0 0 0 0 0 0 0 0 -0 -0 0 0 0 0 0 0 0 0 0 0 0 0 0 0 0 0 0 0 0 0 0 0 0 0 0 0 0 0 0 0 0 0 0 0 0 0
0 0 0 -0 0 0 0 0 0 0 0 0 0 0 0 0 0 0 0 0 0 0 0 0 0 0 0 0 0 0 0 0 0 0 0 0 0 0 0 0 0 0 0 0 0 0 0
0 0 0 -0 0 0 0 0 0 0 0 0 0 0 0 0 0 0 0 0 0 0 0 0 0 0 0 0 0 0 0 0 0 0 0 0 0 0 0 0 0 0 0 0 0 0 0
0 0 0 -0 0 0 0 0 0 0 0 0 0 0 0 0 0 0 0 0 0 0 0 0 0 0 0 0 0 0 0 0 0 0 0 0 0 0 0 0 0 0 0 0 0 0 0
-0 0 0 0 0 0 0 0 -0 0 0 0 0 0 0 0 0 0 0 0 0 0 0 0 0 0 0 0 0 0 0 0 0 0 0 0 0 0 0 0 0 0 0 0 0 0 0
-0 -0 -0 0 0 0 0 0 0 0 0 0 0 0 0 0 0 0 0 0 0 0 0 0 0 0 0 0 0 0 0 0 0 0 0 0 0 0 0 0 0 0 0 0 0 0 0
-0 -0 -0 -0 -0 0 0 0 0 0 0 0 0 0 0 0 0 0 0 0 0 0 0 0 0 0 0 0 0 0 0 0 0 0 0 0 0 0 0 0 0 0 0 0 0 0 0
-0 -0 -0 -0 0 0 0 0 0 0 0 0 0 0 0 0 0 0 0 0 0 0 0 0 0 0 0 0 0 0 0 0 0 0 0 0 0 0 0 0 0 0 0 0 0 0 0
-0 -0 -0 -0 0 0 0 0 0 0 0 0 0 0 0 0 0 0 0 0 0 0 0 0 0 0 0 0 0 0 0 0 0 0 0 0 0 0 0 0 0 0 0 0 0 0 0
-0 -0 -0 -0 0 0 0 0 0 0 0 0 0 0 0 0 0 0 0 0 0 0 0 0 0 0 0 0 0 0 0 0 0 0 0 0 0 0 0 0 0 0 0 0 0 0 0
0 -0 -0 -0 -0 0 0 0 0 0 0 0 0 0 0 0 0 0 0 0 0 0 0 0 0 0 0 0 0 0 0 0 0 0 0 0 0 0 0 0 0 0 0 0 0 0 0
0 0 -0 -0 -0 -0 0 0 0 0 0 0 0 0 0 0 0 0 0 0 0 0 0 0 0 0 0 0 0 0 0 0 0 0 0 0 0 0 0 0 0 0 0 0 0 0 0
0 0 0 -0 -0 -0 0 0 0 0 0 0 0 0 0 0 0 0 0 0 0 0 0 0 0 0 0 0 0 0 0 0 0 0 0 0 0 0 0 0 0 0 0 0 0 0 0
0 0 0 -0 -0 -0 -0 0 0 0 0 0 0 0 0 0 0 0 0 0 0 0 0 0 0 0 0 0 0 0 0 0 0 0 0 0 0 0 0 0 0 0 0 0 0 0 0
0 0 0 0 -0 -0 -0 0 0 0 0 0 0 0 0 0 0 0 0 0 0 0 0 0 0 0 0 0 0 0 0 0 0 0 0 0 0 0 0 0 0 0 0 0 0 0 0
0 0 0 0 0 -0 -0 0 0 0 0 0 0 0 0 0 0 0 0 0 0 0 0 0 0 0 0 0 0 0 0 0 0 0 0 0 0 0 0 0 0 0 0 0 0 0 0
0 0 0 0 0 -0 -0 -0 0 0 0 0 0 0 0 0 0 0 0 0 0 0 0 0 0 0 0 0 0 0 0 0 0 0 0 0 0 0 0 0 0 0 0 0 0 0 0
0 0 0 0 0 0 -0 -0 -0 0 0 0 0 0 0 0 0 0 0 0 0 0 0 0 0 0 0 0 0 0 0 0 0 0 0 0 0 0 0 0 0 0 0 0 0 0 0
0 0 0 0 0 0 -0 -0 -0 0 0 0 0 0 0 0 0 0 0 0 0 0 0 0 0 0 0 0 0 0 0 0 0 0 0 0 0 0 0 0 0 0 0 0 0 0 0
0 0 0 0 0 0 0 -0 -0 -0 0 0 0 0 0 0 0 0 0 0 0 0 0 0 0 0 0 0 0 0 0 0 0 0 0 0 0 0 0 0 0 0 0 0 0 0 0
0 0 0 0 0 0 0 0 0 0 -0 0 0 0 0 0 0 0 0 0 0 0 0 0 0 0 0 0 0 0 0 0 0 0 0 0 0 0 0 0 0 0 0 0 0 0 0
0 0 0 0 0 0 0 0 0 0 0 0 0 0 0 0 0 0 0 0 0 0 0 0 0 0 0 0 0 0 0 0 0 0 0 0 0 0 0 0 0 0 0 0 0 0 0
0 0 0 0 0 0 0 0 0 0 0 0 0 0 0 0 0 0 0 0 0 0 0 0 0 0 0 0 0 0 0 0 0 0 0 0 0 0 0 0 0 0 0 0 0 0 0
Wind_Speed_500mb
30 33 39 42 50 41 50 47 49 67 59 78 82 94 87 79 76 84 86 84 78 72 79 65 57 50 46 26 12 8 25 40 53 62 56 42 32 18 11 11 14 7 8 8 15 10 14
30 39 36 46 47 47 55 47 53 62 68 62 74 94 90 82 76 87 87 80 76 72 59 57 54 54 43 14 19 17 35 51 51 61 58 52 25 16 11 7 11 15 11 10 8 12 17
28 27 35 37 45 45 49 53 48 63 78 80 84 94 88 81 79 84 88 81 76 70 57 57 61 56 42 20 19 21 51 57 46 43 51 38 36 22 13 14 20 6 10 6 10 11 9
28 29 34 38 45 39 52 49 57 68 77 71 104 92 88 83 82 87 87 80 73 69 64 61 59 49 14 21 21 32 59 55 41 35 34 36 32 38 25 16 10 10 7 10 7 13 8
33 31 36 41 38 44 54 58 62 69 81 85 93 95 89 87 82 90 85 83 77 69 68 61 50 24 10 34 30 27 56 60 51 35 23 35 35 8 6 14 5 9 10 11 6 18 1
30 36 38 41 44 52 55 68 68 71 86 95 105 98 92 91 88 90 88 83 77 72 63 50 32 14 20 30 45 32 48 61 49 39 21 26 11 4 3 7 20 10 7 4 12 12 8
34 35 32 42 54 53 57 68 69 94 94 101 102 100 95 96 95 91 90 91 72 38 77 26 36 10 11 31 42 42 43 42 45 40 10 23 15 38 31 4 6 8 9 11 7 8 13
30 30 32 48 61 50 61 59 73 94 97 105 106 104 98 98 99 99 102 78 81 49 29 13 33 15 17 48 28 49 57 32 26 16 22 7 45 25 18 12 12 9 8 12 1 4 7
25 29 35 45 57 41 44 37 89 99 98 108 111 106 103 103 103 105 103 78 66 82 23 19 39 32 35 35 20 49 66 23 19 18 20 16 11 37 25 13 23 12 12 8 6 5 3
24 31 37 46 49 30 22 35 83 101 105 117 113 106 109 109 105 105 87 65 61 80 9 12 19 25 28 24 5 44 66 33 10 33 19 9 16 44 17 31 24 26 10 13 13 11 9
26 35 37 38 43 34 12 36 91 104 107 118 117 115 115 120 85 104 104 85 91 29 11 24 14 23 36 35 34 32 65 21 18 13 14 13 18 30 32 20 19 16 10 16 10 9 10
21 35 36 38 43 39 15 45 97 105 112 123 121 120 118 104 79 96 89 90 39 7 14 20 29 19 20 14 13 39 44 15 20 10 7 11 7 18 19 7 17 13 11 10 9 6 2
17 26 30 36 45 38 13 16 104 108 112 127 125 123 119 93 100 96 90 80 9 12 16 17 17 24 28 12 10 10 25 15 14 16 29 6 5 2 8 11 5 14 10 3 2 1 11
14 22 28 40 49 42 11 39 92 106 114 134 128 122 113 90 114 95 90 22 10 10 22 8 17 31 19 18 4 14 19 24 14 9 9 11 8 13 7 11 16 9 13 10 12 8 5
11 17 24 32 44 43 8 22 94 110 118 138 133 117 108 100 121 91 65 32 16 14 16 20 17 30 8 12 15 12 20 39 19 14 15 12 8 5 3 1 10 9 12 9 13 5 6
10 13 17 28 39 46 24 15 85 105 121 143 133 106 100 105 120 86 26 21 10 13 21 36 13 14 17 41 16 17 24 17 13 18 5 12 7 3 2 4 4 11 16 6 4 9 6
14 12 6 18 32 47 34 12 58 113 121 134 75 59 96 100 109 48 30 17 9 12 35 14 14 13 17 19 15 23 28 5 19 15 8 9 8 3 3 10 16 5 6 2 10 9 11
6 1 6 13 25 43 41 17 32 105 139 137 60 12 117 117 25 14 28 14 10 9 7 8 10 10 21 29 12 16 24 11 53 26 17 6 10 8 9 2 1 0 10 9 13 13 4
6 6 6 6 19 32 40 34 39 111 141 79 46 31 97 115 29 32 8 8 6 9 10 10 9 9 10 23 12 8 15 8 36 28 22 15 1 7 6 6 3 9 8 7 10 6 12
10 6 5 8 7 23 32 33 22 34 79 87 34 15 33 66 24 40 28 28 9 4 5 9 11 10 16 14 6 16 9 5 13 30 33 27 7 14 20 12 15 12 12 10 9 5 7
12 10 4 4 7 17 30 33 28 25 65 70 15 16 44 41 35 43 35 30 14 13 3 13 6 16 18 11 8 12 9 8 4 16 19 11 11 7 5 5 5 11 26 30 21 34 18
15 12 7 3 4 6 20 28 30 26 52 35 17 21 32 35 53 49 40 34 32 11 13 8 16 13 8 17 15 17 16 8 12 2 11 3 6 5 6 10 1 1 13 26 44 22 34
13 18 9 5 3 5 10 27 27 29 30 16 16 46 56 46 42 42 49 44 39 23 12 12 27 14 10 7 16 22 13 25 22 19 10 15 13 7 11 4 5 11 25 29 22 30 20
13 17 13 9 7 7 7 24 23 25 30 30 23 26 28 24 40 42 43 29 38 12 17 7 17 11 22 62 60 50 56 45 31 18 7 13 13 5 6 4 8 16 9 33 35 18 34
12 18 17 13 12 11 9 16 24 25 21 26 26 14 12 16 32 10 45 18 33 26 10 10 8 30 48 21 11 11 8 9 10 11 10 3 10 7 11 8 10 8 10 15 17 30 21
17 18 20 16 18 15 16 13 26 25 16 13 23 24 21 20 17 18 33 42 25 12 7 6 40 57 15 7 7 9 9 9 5 4 8 6 9 7 6 12 20 3 9 16 14 23 14
22 19 20 18 16 16 18 18 20 26 20 12 19 19 20 18 11 44 25 36 24 13 10 9 18 5 6 6 6 4 6 2 13 16 11 5 4 16 7 8 15 14 5 12 16 11 7
27 20 22 22 20 20 18 19 20 22 20 11 31 20 17 19 24 27 21 22 24 30 18 21 15 4 5 8 7 6 6 11 7 10 15 19 18 10 5 3 25 19 11 19 8 10 15
32 28 27 23 22 20 20 18 18 20 21 16 25 31 38 24 29 51 39 32 37 26 37 32 5 16 15 7 5 7 4 3 11 11 3 9 11 11 19 12 6 33 5 13 14 19 17
Wind_Direction_500mb
271 264 263 266 261 261 251 256 242 241 221 223 214 198 198 197 195 192 191 191 188 189 182 185 181 177 165 183 206 207 183 180 180 184 190 173 159 145 163 194 146 207 170 209 266 275 217
271 270 260 262 268 270 246 253 249 240 227 210 213 194 193 191 188 191 189 187 188 192 178 178 174 168 169 179 155 166 170 167 175 187 199 197 198 118 201 217 167 198 201 149 252 235 170
284 274 266 272 273 272 247 244 259 243 229 215 207 192 187 185 185 188 186 187 187 181 177 172 163 167 182 168 171 169 171 165 165 169 179 198 213 172 130 307 239 177 128 53 220 213 226
274 278 272 280 284 270 243 248 261 234 228 202 195 189 180 181 184 182 186 185 180 173 170 167 164 172 190 176 153 167 176 174 177 164 165 179 151 180 183 206 161 141 101 152 225 179 244
283 274 275 285 276 263 248 251 264 243 215 200 195 185 176 179 180 177 180 179 172 167 169 165 164 167 218 181 193 153 181 184 184 189 199 195 180 155 173 142 96 220 188 172 188 184 54
289 278 284 295 282 274 256 253 257 225 211 202 186 179 176 177 177 175 174 166 159 156 160 162 177 171 207 184 192 169 179 186 197 187 166 184 148 25 223 158 197 181 145 171 172 199 144
296 281 277 293 296 276 275 262 243 216 213 201 177 176 175 177 174 168 161 152 140 141 166 171 182 192 175 166 182 184 175 188 191 175 151 169 174 204 209 104 230 149 171 195 222 177 142
306 294 277 295 303 280 277 252 216 199 197 196 177 173 169 175 173 173 170 163 168 178 138 177 196 158 176 167 155 178 175 166 173 165 133 147 212 185 222 222 247 230 206 215 211 112 138
309 298 281 295 305 301 263 223 192 193 194 172 174 170 170 172 172 174 174 169 163 155 138 187 181 189 153 164 159 169 176 162 152 161 176 183 175 198 209 212 218 232 195 225 213 116 72
307 312 285 294 316 306 262 208 194 192 185 175 171 169 170 170 170 172 167 158 160 151 100 173 175 202 169 157 181 183 182 154 168 189 156 217 207 180 175 212 196 229 192 208 157 141 193
309 315 304 303 321 316 272 216 191 189 182 170 171 169 171 175 168 170 164 158 154 174 137 163 168 182 168 163 144 186 183 191 162 170 137 210 163 187 190 196 181 226 149 175 158 136 122
294 318 331 315 327 328 288 199 192 188 182 172 171 171 171 171 174 168 160 159 157 132 206 177 154 159 141 175 160 155 182 188 175 134 66 184 201 171 180 146 174 137 99 60 62 99 213
275 302 319 328 331 336 293 229 190 183 179 173 171 175 174 172 164 163 165 162 122 186 156 174 164 164 158 146 124 154 178 182 168 140 178 136 189 217 138 105 86 157 147 127 90 227 210
275 290 314 337 332 343 318 175 186 189 184 174 172 172 174 171 168 158 156 157 137 203 172 143 133 140 159 133 93 162 139 199 245 155 127 148 203 177 167 182 169 188 161 156 172 185 223
268 294 320 344 329 341 12 202 189 189 185 173 169 167 173 172 171 165 167 186 191 170 148 124 93 143 129 169 131 150 194 195 191 196 150 148 196 338 86 75 159 183 204 145 98 28 74
247 287 327 345 331 343 345 167 175 186 182 175 164 163 172 174 177 171 184 187 166 178 123 138 141 163 167 175 148 175 172 192 198 185 163 186 128 342 321 188 93 173 156 129 356 131 242
223 242 307 344 343 335 3 114 182 186 188 170 150 155 170 169 171 169 194 185 165 160 139 141 149 146 162 167 149 173 186 209 178 187 139 125 101 262 147 213 168 143 193 125 118 149 171
57 260 316 339 352 338 360 94 169 178 180 165 162 136 166 168 164 180 193 170 138 151 157 126 114 111 162 162 134 167 183 190 189 148 154 129 116 146 196 238 292 61 238 164 185 208 199
251 76 14 323 345 355 351 19 123 158 165 152 137 121 163 168 178 184 167 154 98 145 155 155 130 144 156 162 134 163 176 169 180 174 160 175 158 97 39 2 158 197 210 174 108 74 195
254 261 91 16 300 3 353 16 58 93 161 153 139 133 152 183 192 171 166 181 125 53 126 119 119 108 113 159 69 171 132 153 174 193 177 137 160 166 190 193 137 187 188 188 137 160 171
232 249 236 92 19 347 15 357 22 114 150 157 142 155 168 176 192 180 179 172 143 151 191 155 83 158 141 129 105 142 130 123 71 152 146 150 201 134 49 357 118 168 184 187 198 215 194
218 222 235 142 64 334 7 6 7 58 152 138 131 158 167 167 167 172 179 199 172 144 146 181 136 139 138 152 180 176 132 160 170 138 141 121 238 110 12 347 74 306 198 188 220 218 238
194 198 204 181 130 47 360 30 16 28 100 97 102 152 157 161 170 177 192 182 174 135 15 143 132 108 85 119 101 123 130 140 150 151 143 138 130 116 231 334 73 305 207 210 218 218 212
180 185 185 173 153 106 91 42 36 30 61 83 87 136 150 166 175 182 175 168 161 172 124 37 107 98 133 112 99 84 71 64 62 44 97 133 111 94 162 44 199 263 177 207 208 213 214
182 179 178 158 148 145 95 69 60 49 60 68 46 107 113 151 161 120 160 146 122 110 86 105 73 127 137 113 75 72 11 38 13 31 15 46 128 119 148 201 295 243 212 151 176 245 210
182 164 175 150 130 131 114 96 81 73 73 67 45 62 97 122 185 138 150 159 151 121 89 84 130 147 133 82 87 133 165 157 207 38 358 50 70 122 131 164 219 217 191 164 112 264 224
172 160 155 153 147 121 130 111 111 103 98 88 82 66 77 96 52 153 164 160 139 129 99 124 134 133 79 88 75 108 173 231 165 173 161 123 68 201 168 224 284 251 219 151 154 245 135
168 163 148 145 144 152 131 127 120 114 118 141 74 107 97 90 64 120 128 139 145 156 156 157 109 62 54 134 145 155 148 200 161 165 178 169 161 199 113 115 251 174 114 169 202 122 139
167 154 151 135 126 135 151 134 126 124 122 123 83 89 112 82 98 97 111 116 147 158 157 157 127 121 150 115 159 125 161 130 160 192 267 198 188 180 184 206 209 180 175 186 156 150 147
Wind_Speed_850mb
30 33 39 42 50 41 50 47 49 67 59 78 82 94 87 79 76 84 86 84 78 72 79 65 57 50 46 26 12 8 25 40 53 62 56 42 32 18 11 11 14 7 8 8 15 10 14
30 39 36 46 47 47 55 47 53 62 68 62 74 94 90 82 76 87 87 80 76 72 59 57 54 54 43 14 19 17 35 51 51 61 58 52 25 16 11 7 11 15 11 10 8 12 17
28 27 35 37 45 45 49 53 48 63 78 80 84 94 88 81 79 84 88 81 76 70 57 57 61 56 42 20 19 21 51 57 46 43 51 38 36 22 13 14 20 6 10 6 10 11 9
28 29 34 38 45 39 52 49 57 68 77 71 104 92 88 83 82 87 87 80 73 69 64 61 59 49 14 21 21 32 59 55 41 35 34 36 32 38 25 16 10 10 7 10 7 13 8
33 31 36 41 38 44 54 58 62 69 81 85 93 95 89 87 82 90 85 83 77 69 68 61 50 24 10 34 30 27 56 60 51 35 23 35 35 8 6 14 5 9 10 11 6 18 1
30 36 38 41 44 52 55 68 68 71 86 95 105 98 92 91 88 90 88 83 77 72 63 50 32 14 20 30 45 32 48 61 49 39 21 26 11 4 3 7 20 10 7 4 12 12 8
34 35 32 42 54 53 57 68 69 94 94 101 102 100 95 96 95 91 90 91 72 38 77 26 36 10 11 31 42 42 43 42 45 40 10 23 15 38 31 4 6 8 9 11 7 8 13
30 30 32 48 61 50 61 59 73 94 97 105 106 104 98 98 99 99 102 78 81 49 29 13 33 15 17 48 28 49 57 32 26 16 22 7 45 25 18 12 12 9 8 12 1 4 7
25 29 35 45 57 41 44 37 89 99 98 108 111 106 103 103 103 105 103 78 66 82 23 19 39 32 35 35 20 49 66 23 19 18 20 16 11 37 25 13 23 12 12 8 6 5 3
24 31 37 46 49 30 22 35 83 101 105 117 113 106 109 109 105 105 87 65 61 80 9 12 19 25 28 24 5 44 66 33 10 33 19 9 16 44 17 31 24 26 10 13 13 11 9
26 35 37 38 43 34 12 36 91 104 107 118 117 115 115 120 85 104 104 85 91 29 11 24 14 23 36 35 34 32 65 21 18 13 14 13 18 30 32 20 19 16 10 16 10 9 10
21 35 36 38 43 39 15 45 97 105 112 123 121 120 118 104 79 96 89 90 39 7 14 20 29 19 20 14 13 39 44 15 20 10 7 11 7 18 19 7 17 13 11 10 9 6 2
17 26 30 36 45 38 13 16 104 108 112 127 125 123 119 93 100 96 90 80 9 12 16 17 17 24 28 12 10 10 25 15 14 16 29 6 5 2 8 11 5 14 10 3 2 1 11
14 22 28 40 49 42 11 39 92 106 114 134 128 122 113 90 114 95 90 22 10 10 22 8 17 31 19 18 4 14 19 24 14 9 9 11 8 13 7 11 16 9 13 10 12 8 5
11 17 24 32 44 43 8 22 94 110 118 138 133 117 108 100 121 91 65 32 16 14 16 20 17 30 8 12 15 12 20 39 19 14 15 12 8 5 3 1 10 9 12 9 13 5 6
10 13 17 28 39 46 24 15 85 105 121 143 133 106 100 105 120 86 26 21 10 13 21 36 13 14 17 41 16 17 24 17 13 18 5 12 7 3 2 4 4 11 16 6 4 9 6
14 12 6 18 32 47 34 12 58 113 121 134 75 59 96 100 109 48 30 17 9 12 35 14 14 13 17 19 15 23 28 5 19 15 8 9 8 3 3 10 16 5 6 2 10 9 11
6 1 6 13 25 43 41 17 32 105 139 137 60 12 117 117 25 14 28 14 10 9 7 8 10 10 21 29 12 16 24 11 53 26 17 6 10 8 9 2 1 0 10 9 13 13 4
6 6 6 6 19 32 40 34 39 111 141 79 46 31 97 115 29 32 8 8 6 9 10 10 9 9 10 23 12 8 15 8 36 28 22 15 1 7 6 6 3 9 8 7 10 6 12
10 6 5 8 7 23 32 33 22 34 79 87 34 15 33 66 24 40 28 28 9 4 5 9 11 10 16 14 6 16 9 5 13 30 33 27 7 14 20 12 15 12 12 10 9 5 7
12 10 4 4 7 17 30 33 28 25 65 70 15 16 44 41 35 43 35 30 14 13 3 13 6 16 18 11 8 12 9 8 4 16 19 11 11 7 5 5 5 11 26 30 21 34 18
15 12 7 3 4 6 20 28 30 26 52 35 17 21 32 35 53 49 40 34 32 11 13 8 16 13 8 17 15 17 16 8 12 2 11 3 6 5 6 10 1 1 13 26 44 22 34
13 18 9 5 3 5 10 27 27 29 30 16 16 46 56 46 42 42 49 44 39 23 12 12 27 14 10 7 16 22 13 25 22 19 10 15 13 7 11 4 5 11 25 29 22 30 20
13 17 13 9 7 7 7 24 23 25 30 30 23 26 28 24 40 42 43 29 38 12 17 7 17 11 22 62 60 50 56 45 31 18 7 13 13 5 6 4 8 16 9 33 35 18 34
12 18 17 13 12 11 9 16 24 25 21 26 26 14 12 16 32 10 45 18 33 26 10 10 8 30 48 21 11 11 8 9 10 11 10 3 10 7 11 8 10 8 10 15 17 30 21
17 18 20 16 18 15 16 13 26 25 16 13 23 24 21 20 17 18 33 42 25 12 7 6 40 57 15 7 7 9 9 9 5 4 8 6 9 7 6 12 20 3 9 16 14 23 14
22 19 20 18 16 16 18 18 20 26 20 12 19 19 20 18 11 44 25 36 24 13 10 9 18 5 6 6 6 4 6 2 13 16 11 5 4 16 7 8 15 14 5 12 16 11 7
27 20 22 22 20 20 18 19 20 22 20 11 31 20 17 19 24 27 21 22 24 30 18 21 15 4 5 8 7 6 6 11 7 10 15 19 18 10 5 3 25 19 11 19 8 10 15
32 28 27 23 22 20 20 18 18 20 21 16 25 31 38 24 29 51 39 32 37 26 37 32 5 16 15 7 5 7 4 3 11 11 3 9 11 11 19 12 6 33 5 13 14 19 17
Wind_Direction_850mb
271 264 263 266 261 261 251 256 242 241 221 223 214 198 198 197 195 192 191 191 188 189 182 185 181 177 165 183 206 207 183 180 180 184 190 173 159 145 163 194 146 207 170 209 266 275 217
271 270 260 262 268 270 246 253 249 240 227 210 213 194 193 191 188 191 189 187 188 192 178 178 174 168 169 179 155 166 170 167 175 187 199 197 198 118 201 217 167 198 201 149 252 235 170
284 274 266 272 273 272 247 244 259 243 229 215 207 192 187 185 185 188 186 187 187 181 177 172 163 167 182 168 171 169 171 165 165 169 179 198 213 172 130 307 239 177 128 53 220 213 226
274 278 272 280 284 270 243 248 261 234 228 202 195 189 180 181 184 182 186 185 180 173 170 167 164 172 190 176 153 167 176 174 177 164 165 179 151 180 183 206 161 141 101 152 225 179 244
283 274 275 285 276 263 248 251 264 243 215 200 195 185 176 179 180 177 180 179 172 167 169 165 164 167 218 181 193 153 181 184 184 189 199 195 180 155 173 142 96 220 188 172 188 184 54
289 278 284 295 282 274 256 253 257 225 211 202 186 179 176 177 177 175 174 166 159 156 160 162 177 171 207 184 192 169 179 186 197 187 166 184 148 25 223 158 197 181 145 171 172 199 144
296 281 277 293 296 276 275 262 243 216 213 201 177 176 175 177 174 168 161 152 140 141 166 171 182 192 175 166 182 184 175 188 191 175 151 169 174 204 209 104 230 149 171 195 222 177 142
306 294 277 295 303 280 277 252 216 199 197 196 177 173 169 175 173 173 170 163 168 178 138 177 196 158 176 167 155 178 175 166 173 165 133 147 212 185 222 222 247 230 206 215 211 112 138
309 298 281 295 305 301 263 223 192 193 194 172 174 170 170 172 172 174 174 169 163 155 138 187 181 189 153 164 159 169 176 162 152 161 176 183 175 198 209 212 218 232 195 225 213 116 72
307 312 285 294 316 306 262 208 194 192 185 175 171 169 170 170 170 172 167 158 160 151 100 173 175 202 169 157 181 183 182 154 168 189 156 217 207 180 175 212 196 229 192 208 157 141 193
309 315 304 303 321 316 272 216 191 189 182 170 171 169 171 175 168 170 164 158 154 174 137 163 168 182 168 163 144 186 183 191 162 170 137 210 163 187 190 196 181 226 149 175 158 136 122
294 318 331 315 327 328 288 199 192 188 182 172 171 171 171 171 174 168 160 159 157 132 206 177 154 159 141 175 160 155 182 188 175 134 66 184 201 171 180 146 174 137 99 60 62 99 213
275 302 319 328 331 336 293 229 190 183 179 173 171 175 174 172 164 163 165 162 122 186 156 174 164 164 158 146 124 154 178 182 168 140 178 136 189 217 138 105 86 157 147 127 90 227 210
275 290 314 337 332 343 318 175 186 189 184 174 172 172 174 171 168 158 156 157 137 203 172 143 133 140 159 133 93 162 139 199 245 155 127 148 203 177 167 182 169 188 161 156 172 185 223
268 294 320 344 329 341 12 202 189 189 185 173 169 167 173 172 171 165 167 186 191 170 148 124 93 143 129 169 131 150 194 195 191 196 150 148 196 338 86 75 159 183 204 145 98 28 74
247 287 327 345 331 343 345 167 175 186 182 175 164 163 172 174 177 171 184 187 166 178 123 138 141 163 167 175 148 175 172 192 198 185 163 186 128 342 321 188 93 173 156 129 356 131 242
223 242 307 344 343 335 3 114 182 186 188 170 150 155 170 169 171 169 194 185 165 160 139 141 149 146 162 167 149 173 186 209 178 187 139 125 101 262 147 213 168 143 193 125 118 149 171
57 260 316 339 352 338 360 94 169 178 180 165 162 136 166 168 164 180 193 170 138 151 157 126 114 111 162 162 134 167 183 190 189 148 154 129 116 146 196 238 292 61 238 164 185 208 199
251 76 14 323 345 355 351 19 123 158 165 152 137 121 163 168 178 184 167 154 98 145 155 155 130 144 156 162 134 163 176 169 180 174 160 175 158 97 39 2 158 197 210 174 108 74 195
254 261 91 16 300 3 353 16 58 93 161 153 139 133 152 183 192 171 166 181 125 53 126 119 119 108 113 159 69 171 132 153 174 193 177 137 160 166 190 193 137 187 188 188 137 160 171
232 249 236 92 19 347 15 357 22 114 150 157 142 155 168 176 192 180 179 172 143 151 191 155 83 158 141 129 105 142 130 123 71 152 146 150 201 134 49 357 118 168 184 187 198 215 194
218 222 235 142 64 334 7 6 7 58 152 138 131 158 167 167 167 172 179 199 172 144 146 181 136 139 138 152 180 176 132 160 170 138 141 121 238 110 12 347 74 306 198 188 220 218 238
194 198 204 181 130 47 360 30 16 28 100 97 102 152 157 161 170 177 192 182 174 135 15 143 132 108 85 119 101 123 130 140 150 151 143 138 130 116 231 334 73 305 207 210 218 218 212
180 185 185 173 153 106 91 42 36 30 61 83 87 136 150 166 175 182 175 168 161 172 124 37 107 98 133 112 99 84 71 64 62 44 97 133 111 94 162 44 199 263 177 207 208 213 214
182 179 178 158 148 145 95 69 60 49 60 68 46 107 113 151 161 120 160 146 122 110 86 105 73 127 137 113 75 72 11 38 13 31 15 46 128 119 148 201 295 243 212 151 176 245 210
182 164 175 150 130 131 114 96 81 73 73 67 45 62 97 122 185 138 150 159 151 121 89 84 130 147 133 82 87 133 165 157 207 38 358 50 70 122 131 164 219 217 191 164 112 264 224
172 160 155 153 147 121 130 111 111 103 98 88 82 66 77 96 52 153 164 160 139 129 99 124 134 133 79 88 75 108 173 231 165 173 161 123 68 201 168 224 284 251 219 151 154 245 135
168 163 148 145 144 152 131 127 120 114 118 141 74 107 97 90 64 120 128 139 145 156 156 157 109 62 54 134 145 155 148 200 161 165 178 169 161 199 113 115 251 174 114 169 202 122 139
167 154 151 135 126 135 151 134 126 124 122 123 83 89 112 82 98 97 111 116 147 158 157 157 127 121 150 115 159 125 161 130 160 192 267 198 188 180 184 206 209 180 175 186 156 150 147